User: anonymous   Login
Location: Fort Wayne
(41.1310°N, 85.1290°W)
Time: 18:08:12
(UTC-04:00)
Language:

Cosmos 2227 Rocket - Orbit

View from above orbital plane
View from above orbital plane
View from above satellite
View from above satellite

Ground track
Ground track

The orbit data is extracted from the following two-line orbital elements,

1 22285U 92093B   17288.55262959 +.00000287 +00000-0 +17250-3 0  9996
2 22285 071.0216 319.7857 0006221 292.3648 067.6815 14.15015801279280
Epoch (UTC): 15 October 2017 13:15:47
Eccentricity: 0.0006221
inclination: 71.0216°
perigee height: 838 km
apogee height: 847 km
right ascension of ascending node: 319.7857°
argument of perigee: 292.3648°
revolutions per day: 14.15015801
mean anomaly at epoch: 67.6815°
orbit number at epoch: 27928

The dashed part of the orbit path shows where the satellite is in the earth's shadow,  

DLR